Honolulu, HI

6:27 AM HST on June 21, 2018 (GMT -1000)
Honolulu International

Weather History for PHNL - November, 2017

Change the Weather History Date:

Friday, November 10, 2017

  Actual Average Record
Temperature  
Mean Temperature 81 °F 78 °F  
Max Temperature 87 °F 84 °F 89 °F (1968)
Min Temperature 75 °F 72 °F 63 °F (1948)
Degree Days  
Heating Degree Days 0 0  
Month to date heating degree days 0 0  
Since 1 July heating degree days 0 0  
Cooling Degree Days 16 13  
Month to date cooling degree days 168 136  
Year to date cooling degree days 4192 4082  
Growing Degree Days 31 (Base 50)    
Moisture  
Dew Point 67 °F    
Average Humidity 63    
Maximum Humidity 82    
Minimum Humidity 43    
Precipitation  
Precipitation T in 0.08 in 2.34 in (1965)
Month to date precipitation 0.05 0.85  
Year to date precipitation 18.82 12.29  
Sea Level Pressure  
Sea Level Pressure 29.97 in    
Wind  
Wind Speed 9 mph (NE)    
Max Wind Speed 20 mph    
Max Gust Speed 25 mph    
Visibility 10 miles    
Events Rain    
T = Trace of Precipitation, MM = Missing Value Source: NWS Daily Summary

Daily Weather History Graph

Daily Weather History Graph

Search for Another Location

Airport or City:

Astronomy

Nov. 10, 2017 Rise Set
Actual Time 6:39 AM HST 5:51 PM HST
Civil Twilight 6:16 AM HST 6:14 PM HST
Nautical Twilight 5:49 AM HST 6:41 PM HST
Astronomical Twilight 5:23 AM HST 7:07 PM HST
Moon No Moon Rise 1:02 PM HST (11/10)
Length of Visible Light 11h 57m
Length of Day
11h 11m
Waning Gibbous, 50% of the Moon is Illuminated
Nov 10
Waning Gibbous
Nov 18
New
Nov 26
First Quarter
Dec 3
Full
Dec 9
Last Quarter

Hourly Weather History & Observations

Time (HST) Temp. Heat Index Dew Point Humidity Pressure Visibility Wind Dir Wind Speed Gust Speed Precip Events Conditions
12:53 AM 78.1 °F - 66.9 °F 68% 29.97 in 10.0 mi East 6.9 mph - 0.00 in Rain Light Rain
1:53 AM 78.1 °F - 66.9 °F 68% 29.98 in 10.0 mi NE 11.5 mph - 0.00 in   Mostly Cloudy
2:53 AM 75.9 °F - 66.9 °F 74% 29.96 in 10.0 mi ENE 8.1 mph - 0.00 in   Mostly Cloudy
3:53 AM 75.9 °F - 68.0 °F 76% 29.95 in 10.0 mi NE 4.6 mph - 0.00 in   Mostly Cloudy
4:53 AM 75.0 °F - 68.0 °F 79% 29.95 in 10.0 mi North 4.6 mph - 0.00 in   Overcast
5:53 AM 75.9 °F - 69.1 °F 79% 29.97 in 10.0 mi North 4.6 mph - 0.00 in   Mostly Cloudy
6:53 AM 75.0 °F - 69.1 °F 82% 29.99 in 10.0 mi WNW 4.6 mph - 0.00 in   Mostly Cloudy
7:53 AM 77.0 °F - 69.1 °F 76% 29.99 in 10.0 mi North 8.1 mph - N/A   Mostly Cloudy
8:53 AM 80.1 °F 82.7 °F 68.0 °F 67% 29.99 in 10.0 mi NNW 8.1 mph - N/A   Scattered Clouds
9:53 AM 84.0 °F 87.0 °F 68.0 °F 58% 29.99 in 10.0 mi NE 11.5 mph - N/A   Scattered Clouds
10:53 AM 86.0 °F 88.2 °F 66.0 °F 51% 29.97 in 10.0 mi ENE 12.7 mph - N/A   Scattered Clouds
11:53 AM 86.0 °F 88.2 °F 66.0 °F 51% 29.96 in 10.0 mi ENE 17.3 mph 20.7 mph N/A   Mostly Cloudy
12:53 PM 86.0 °F 89.4 °F 68.0 °F 55% 29.95 in 10.0 mi ENE 11.5 mph - N/A   Mostly Cloudy
1:53 PM 84.9 °F 87.1 °F 66.0 °F 53% 29.92 in 10.0 mi ENE 16.1 mph - N/A   Mostly Cloudy
2:53 PM 86.0 °F 87.6 °F 64.9 °F 49% 29.91 in 10.0 mi NE 13.8 mph - N/A   Scattered Clouds
3:53 PM 84.0 °F 85.8 °F 64.9 °F 53% 29.92 in 10.0 mi East 15.0 mph 21.9 mph N/A   Mostly Cloudy
4:53 PM 81.0 °F 82.7 °F 64.9 °F 58% 29.94 in 10.0 mi ENE 20.7 mph 25.3 mph N/A   Mostly Cloudy
5:53 PM 81.0 °F 82.7 °F 64.9 °F 58% 29.95 in 10.0 mi NNE 10.4 mph - N/A   Mostly Cloudy
6:53 PM 80.1 °F 81.9 °F 64.9 °F 60% 29.97 in 10.0 mi Variable 6.9 mph - N/A   Scattered Clouds
7:53 PM 80.1 °F 82.1 °F 66.0 °F 62% 29.99 in 10.0 mi NE 10.4 mph - N/A   Partly Cloudy
8:53 PM 80.1 °F 81.9 °F 64.9 °F 60% 29.99 in 10.0 mi ENE 11.5 mph - N/A   Partly Cloudy
9:53 PM 79.0 °F - 64.9 °F 62% 29.99 in 10.0 mi NE 9.2 mph - N/A   Partly Cloudy
10:53 PM 79.0 °F - 64.9 °F 62% 29.99 in 10.0 mi NE 6.9 mph - N/A   Partly Cloudy
11:53 PM 78.1 °F - 64.9 °F 64% 29.99 in 10.0 mi North 4.6 mph - N/A   Partly Cloudy